Flag for United Kingdom

Past Weather in Whitstable, England, United Kingdom — Yesterday and Last 2 Weeks

Now
61 °F

Cool.


Feels Like: 61 °F
Forecast: 66 / 59 °F
Wind: 10 mph from Northeast

Location: Manston
Current Time: Sep 19, 2020 at 8:00:15 am
Latest Report: Sep 19, 2020 at 7:00 am
Visibility: 13 mi
Pressure30.03 "Hg
Humidity: 83%
Dew Point: 56 °F
Location of WhitstableLocation

Past Weather in Whitstable — Graph

°F

Whitstable Temperature Yesterday

Maximum temperature yesterday: 65 °F (at 2:00 pm)
Minimum temperature yesterday: 57 °F (at 6:00 am)
Average temperature yesterday: 62 °F

High & Low Weather Summary for the Past Weeks

 TemperatureHumidityPressure
High86 °F (Sep 15, 2:00 pm)99% (Sep 13, 6:00 am)30.39 "Hg (Sep 13, 6:00 am)
Low49 °F (Sep 6, 7:00 am)36% (Sep 15, 2:00 pm)29.99 "Hg (Sep 11, 6:00 pm)
Average62 °F75%30.17 "Hg
* Reported Sep 4 7:00 am — Sep 19 7:00 am, Whitstable. Weather by CustomWeather, © 2020

Note: Actual official high and low records may vary slightly from our data, if they occured in-between our weather recording intervals... More about our weather records

Whitstable Weather History for the Previous 24 Hours

Scroll right to see more
 ConditionsComfort  
Time TempWeatherWind HumidityBarometerVisibility
7:00 am
Sat, Sep 19
61 °FCool.10 mph83%30.03 "Hg13 mi
6:00 am61 °FCool.9 mph82%30.03 "Hg12 mi
5:00 am61 °FCool.9 mph82%30.03 "Hg12 mi
4:00 am62 °FCool.10 mph79%30.03 "Hg16 mi
3:00 am62 °FMild.10 mph74%30.05 "Hg16 mi
2:00 am63 °FMild.10 mph72%30.07 "Hg14 mi
1:00 am63 °FMild.12 mph73%30.08 "Hg16 mi
12:00 am63 °FMild.12 mph80%30.10 "Hg11 mi
11:00 pm
Fri, Sep 18
63 °FMild.10 mph79%30.11 "Hg13 mi
10:00 pm63 °FMild.12 mph81%30.12 "Hg11 mi
9:00 pm63 °FMild.13 mph81%30.13 "Hg10 mi
8:00 pm63 °FMild.13 mph78%30.12 "Hg12 mi
7:00 pm63 °FMild.14 mph75%30.11 "Hg13 mi
6:00 pm63 °FMild.14 mph74%30.13 "Hg12 mi
5:00 pm64 °FMild.16 mph69%30.14 "Hg11 mi
4:00 pm65 °FMild.16 mph67%30.15 "Hg13 mi
3:00 pm65 °FMild.15 mph63%30.16 "Hg17 mi
2:00 pm65 °FMild.16 mph59%30.18 "Hg14 mi
1:00 pm65 °FMild.15 mph59%30.20 "Hg9 mi
11:00 am65 °FMild.16 mph60%30.23 "Hg22 mi
10:00 am64 °FMild.18 mph62%30.22 "Hg25 mi
9:00 am62 °FMild.14 mph69%30.22 "Hg17 mi
8:00 am60 °FCool.12 mph75%30.22 "Hg31 mi
Weather by CustomWeather, © 2020

See weather overview